FW6014 Weather Reports


Display with metric or nautical units.
time (UTC)temp
F
wind
direction
speed
MPH
gust
MPH
rain 1hr
in
rain 24hr
in
rain mn
in
humidity
%
barometer
mb
20260902040103 62 270 0.0 0.0 0.00 0.00 0.00 91 1021.8
20260902040044 62 270 0.0 0.0 0.00 0.00 0.00 91 1021.6
20260902035602 62 270 0.0 1.0 0.00 0.00 0.00 91 1021.8
20260902035103 63 270 0.0 1.0 0.00 0.00 0.00 91 1021.8
20260902034635 62 270 0.0 2.0 0.00 0.00 0.00 91 1021.5
20260902034602 63 270 0.0 2.0 0.00 0.00 0.00 91 1021.8
20260902034103 63 270 0.0 3.0 0.00 0.00 0.00 91 1021.8
20260902033101 63 270 0.0 0.0 0.00 0.00 0.00 91 1021.6
20260902033031 62 270 0.0 0.0 0.00 0.00 0.00 91 1021.5
20260902032602 63 270 0.0 1.0 0.00 0.00 0.00 91 1021.6
20260902032103 63 270 0.0 2.0 0.00 0.00 0.00 91 1021.6
20260902031627 63 270 0.0 2.0 0.00 0.00 0.00 91 1021.4
20260902031602 63 270 0.0 2.0 0.00 0.00 0.00 91 1021.6
20260902031101 63 270 0.0 1.0 0.00 0.00 0.00 91 1021.8
20260902030601 63 270 0.0 1.0 0.00 0.00 0.00 91 1021.8
20260902030020 63 270 0.0 1.0 0.00 0.00 0.00 91 1021.4
20260902025602 63 270 0.0 1.0 0.00 0.00 0.00 91 1021.5
20260902025103 63 270 0.0 0.0 0.00 0.00 0.00 91 1021.6
20260902024101 63 270 0.0 0.0 0.00 0.00 0.00 91 1021.5
20260902023601 63 270 0.0 0.0 0.00 0.00 0.00 91 1021.4
20260902023102 63 270 0.0 0.0 0.00 0.00 0.00 90 1021.4
20260902023013 63 270 0.0 0.0 0.00 0.00 0.00 90 1021.2
20260902022602 63 270 0.0 1.0 0.00 0.00 0.00 90 1021.4
20260902022102 63 270 0.0 1.0 0.00 0.00 0.00 90 1021.3
20260902021610 63 270 0.0 1.0 0.00 0.00 0.00 90 1021.0
20260902021602 63 270 0.0 1.0 0.00 0.00 0.00 90 1021.2
20260902021102 63 270 0.0 1.0 0.00 0.00 0.00 89 1021.2
20260902020601 63 270 0.0 0.0 0.00 0.00 0.00 89 1021.3
20260902020011 63 270 0.0 0.0 0.00 0.00 0.00 89 1021.2
20260902015101 64 270 0.0 0.0 0.00 0.00 0.00 89 1021.5
20260902014608 63 270 0.0 0.0 0.00 0.00 0.00 88 1021.3
20260902014601 64 270 0.0 0.0 0.00 0.00 0.00 88 1021.5
20260902013601 64 270 0.0 0.0 0.00 0.00 0.00 87 1021.3
20260902013103 64 270 0.0 2.0 0.00 0.00 0.00 86 1021.4
20260902013007 64 270 0.0 2.0 0.00 0.00 0.00 86 1021.2
20260902012601 64 270 0.0 2.0 0.00 0.00 0.00 86 1021.4
20260902012100 65 270 0.0 2.0 0.00 0.00 0.00 86 1021.2
20260902011609 64 270 0.0 3.0 0.00 0.00 0.00 86 1020.9
20260902011602 65 270 1.0 3.0 0.00 0.00 0.00 86 1021.1
20260902011101 65 270 1.0 3.0 0.00 0.00 0.00 85 1021.0
20260902010603 65 270 1.0 4.0 0.00 0.00 0.00 85 1021.2
20260902010003 65 270 1.0 4.0 0.00 0.00 0.00 84 1020.9
20260902005601 65 270 1.0 4.0 0.00 0.00 0.00 84 1021.2
20260902005101 65 270 1.0 4.0 0.00 0.00 0.00 84 1021.3
20260902004608 65 270 0.0 3.0 0.00 0.00 0.00 84 1021.1
20260902004601 65 270 1.0 3.0 0.00 0.00 0.00 84 1021.3
20260902004102 65 270 0.0 2.0 0.00 0.00 0.00 83 1021.2
20260902003601 66 270 0.0 2.0 0.00 0.00 0.00 83 1021.0
20260902003101 66 270 1.0 4.0 0.00 0.00 0.00 83 1020.8
20260902003005 65 270 0.0 4.0 0.00 0.00 0.00 82 1020.7
20260902002602 66 270 1.0 4.0 0.00 0.00 0.00 82 1020.8
20260902002101 66 270 1.0 3.0 0.00 0.00 0.00 82 1020.7
20260902001601 66 270 0.0 3.0 0.00 0.00 0.00 82 1020.8
20260902001551 66 270 0.0 3.0 0.00 0.00 0.00 82 1020.7
20260902001100 66 270 0.0 3.0 0.00 0.00 0.00 82 1020.7
20260902000602 66 270 0.0 3.0 0.00 0.00 0.00 82 1020.7
20260902000136 66 270 1.0 3.0 0.00 0.00 0.00 82 1020.4
20260901234601 67 270 1.0 5.0 0.00 0.00 0.00 80 1020.5
20260901234547 66 270 0.0 5.0 0.00 0.00 0.00 80 1020.4
20260901234103 67 270 1.0 5.0 0.00 0.00 0.00 80 1020.5
20260901233600 66 270 1.0 3.0 0.00 0.00 0.00 79 1020.5
20260901233131 66 270 1.0 3.0 0.00 0.00 0.00 79 1020.2
20260901233102 66 270 1.0 3.0 0.00 0.00 0.00 79 1020.4
20260901232101 64 270 1.0 2.0 0.00 0.00 0.00 77 1020.3
20260901231601 64 270 1.0 2.0 0.00 0.00 0.00 77 1020.3
20260901231534 64 270 0.0 2.0 0.00 0.00 0.00 77 1020.1
20260901230601 64 270 1.0 2.0 0.00 0.00 0.00 79 1020.2
20260901230131 64 270 0.0 1.0 0.00 0.00 0.00 81 1020.1
20260901225102 65 270 1.0 1.0 0.00 0.00 0.00 80 1020.2
20260901224601 65 270 1.0 1.0 0.00 0.00 0.00 82 1020.2
20260901224523 64 270 0.0 1.0 0.00 0.00 0.00 79 1020.0
20260901224101 65 270 1.0 1.0 0.00 0.00 0.00 81 1020.2
20260901223117 65 270 0.0 1.0 0.00 0.00 0.00 78 1020.1
20260901223102 65 270 0.0 1.0 0.00 0.00 0.00 78 1020.3
20260901222602 66 270 0.0 1.0 0.00 0.00 0.00 77 1020.2
20260901222103 66 270 0.0 0.0 0.00 0.00 0.00 80 1020.1
20260901221601 67 270 0.0 0.0 0.00 0.00 0.00 77 1020.2
20260901221512 67 270 0.0 0.0 0.00 0.00 0.00 78 1019.9
20260901221102 68 270 0.0 0.0 0.00 0.00 0.00 75 1020.1
20260901215603 70 270 0.0 1.0 0.00 0.00 0.00 67 1020.1
20260901215104 71 270 0.0 1.0 0.00 0.00 0.00 66 1020.0
20260901214656 72 270 0.0 1.0 0.00 0.00 0.00 62 1019.9
20260901214602 72 270 0.0 2.0 0.00 0.00 0.00 62 1020.1
20260901214101 73 270 0.0 2.0 0.00 0.00 0.00 58 1019.9
20260901213601 73 270 0.0 2.0 0.00 0.00 0.00 60 1019.9
20260901213101 73 270 0.0 0.0 0.00 0.00 0.00 62 1019.8
20260901213055 73 270 0.0 0.0 0.00 0.00 0.00 62 1019.6
20260901212600 73 270 0.0 0.0 0.00 0.00 0.00 63 1019.8
20260901212100 74 270 0.0 1.0 0.00 0.00 0.00 61 1019.7
20260901211641 73 270 0.0 1.0 0.00 0.00 0.00 58 1019.5
20260901211603 74 270 0.0 1.0 0.00 0.00 0.00 58 1019.7
20260901211102 74 271 0.0 1.0 0.00 0.00 0.00 56 1019.7
20260901210601 74 271 0.0 2.0 0.00 0.00 0.00 59 1019.6
20260901210101 74 271 0.0 2.0 0.00 0.00 0.00 59 1019.6
20260901210035 74 271 0.0 2.0 0.00 0.00 0.00 59 1019.4
20260901205103 73 271 0.0 3.0 0.00 0.00 0.00 64 1019.6
20260901204630 72 271 1.0 3.0 0.00 0.00 0.00 58 1019.4
20260901204601 73 271 0.0 3.0 0.00 0.00 0.00 58 1019.6
20260901204102 72 271 0.0 1.0 0.00 0.00 0.00 58 1019.6
20260901203601 72 271 0.0 1.0 0.00 0.00 0.00 64 1019.5
20260901203101 72 271 0.0 1.0 0.00 0.00 0.00 63 1019.5
20260901203046 72 271 0.0 1.0 0.00 0.00 0.00 63 1019.3
20260901201628 74 271 0.0 1.0 0.00 0.00 0.00 58 1019.2
20260901201600 74 271 0.0 1.0 0.00 0.00 0.00 58 1019.5
20260901201101 75 271 0.0 1.0 0.00 0.00 0.00 59 1019.6
20260901200601 74 271 0.0 2.0 0.00 0.00 0.00 58 1019.5
20260901200029 74 271 0.0 2.0 0.00 0.00 0.00 53 1019.2
20260901194622 73 271 0.0 2.0 0.00 0.00 0.00 54 1019.4
20260901194602 74 271 0.0 2.0 0.00 0.00 0.00 58 1019.6
20260901194101 74 271 0.0 2.0 0.00 0.00 0.00 59 1019.7
20260901193602 73 271 0.0 3.0 0.00 0.00 0.00 54 1019.7
20260901193011 73 271 0.0 3.0 0.00 0.00 0.00 55 1019.5
20260901191609 73 271 0.0 4.0 0.00 0.00 0.00 56 1019.5
20260901191602 74 271 1.0 4.0 0.00 0.00 0.00 56 1019.7
20260901190601 75 271 1.0 5.0 0.00 0.00 0.00 52 1019.7
20260901185602 75 271 0.0 2.0 0.00 0.00 0.00 54 1019.8
20260901185102 75 271 1.0 4.0 0.00 0.00 0.00 57 1019.9
20260901184602 74 271 1.0 4.0 0.00 0.00 0.00 53 1019.9
20260901184555 74 271 1.0 4.0 0.00 0.00 0.00 53 1019.6
20260901184102 75 271 1.0 3.0 0.00 0.00 0.00 57 1019.8
20260901183145 73 271 0.0 2.0 0.00 0.00 0.00 55 1019.6
20260901183102 74 271 0.0 2.0 0.00 0.00 0.00 55 1019.9
20260901182602 74 271 0.0 1.0 0.00 0.00 0.00 55 1019.9
20260901181602 73 271 0.0 1.0 0.00 0.00 0.00 59 1019.9
20260901181541 73 271 0.0 1.0 0.00 0.00 0.00 59 1019.7
20260901181059 73 271 1.0 4.0 0.00 0.00 0.00 55 1019.9
20260901180559 73 271 1.0 4.0 0.00 0.00 0.00 55 1019.8
20260901180138 73 271 0.0 3.0 0.00 0.00 0.00 54 1019.6
20260901180058 73 271 1.0 3.0 0.00 0.00 0.00 55 1019.8
20260901175555 73 271 1.0 3.0 0.00 0.00 0.00 56 1019.8
20260901175055 73 271 1.0 5.0 0.00 0.00 0.00 55 1019.7
20260901174555 73 271 1.0 5.0 0.00 0.00 0.00 55 1019.7
20260901174537 72 271 1.0 5.0 0.00 0.00 0.00 55 1019.4
20260901174054 73 271 1.0 4.0 0.00 0.00 0.00 57 1019.6
20260901173556 73 271 1.0 5.0 0.00 0.00 0.00 55 1019.7
20260901173131 73 271 0.0 5.0 0.00 0.00 0.00 55 1019.5
20260901173053 73 271 1.0 5.0 0.00 0.00 0.00 59 1019.7
20260901172553 73 271 0.0 4.0 0.00 0.00 0.00 56 1019.7
20260901172054 74 271 1.0 3.0 0.00 0.00 0.00 58 1019.7
20260901171554 74 271 1.0 3.0 0.00 0.00 0.00 60 1019.7
20260901171533 73 271 1.0 3.0 0.00 0.00 0.00 59 1019.5
20260901171051 74 270 0.0 3.0 0.00 0.00 0.00 59 1019.7
20260901170550 74 271 0.0 3.0 0.00 0.00 0.00 57 1019.7
20260901165546 73 271 1.0 2.0 0.00 0.00 0.00 58 1019.8
20260901165047 73 271 0.0 2.0 0.00 0.00 0.00 58 1019.9
20260901164548 74 271 0.0 2.0 0.00 0.00 0.00 58 1020.0
20260901164525 73 271 0.0 1.0 0.00 0.00 0.00 58 1019.8
20260901164048 73 271 1.0 5.0 0.00 0.00 0.00 58 1019.9
20260901163548 73 271 1.0 5.0 0.00 0.00 0.00 55 1020.0
20260901163124 74 271 0.0 3.0 0.00 0.00 0.00 56 1019.8
20260901163049 74 271 0.0 3.0 0.00 0.00 0.00 56 1020.0
20260901162547 74 271 0.0 3.0 0.00 0.00 0.00 58 1020.2
20260901162049 74 271 0.0 1.0 0.00 0.00 0.00 64 1020.3
20260901161548 73 271 0.0 2.0 0.00 0.00 0.00 61 1020.2
20260901161532 73 271 0.0 2.0 0.00 0.00 0.00 61 1020.1
20260901161046 73 271 1.0 2.0 0.00 0.00 0.00 61 1020.2
20260901160548 73 271 0.0 2.0 0.00 0.00 0.00 65 1020.2
20260901160117 72 271 0.0 2.0 0.00 0.00 0.00 62 1020.0
20260901160048 73 271 0.0 2.0 0.00 0.00 0.00 62 1020.2
20260901155547 72 271 0.0 3.0 0.00 0.00 0.00 56 1020.1
20260901155048 72 271 0.0 3.0 0.00 0.00 0.00 61 1020.1
20260901154547 72 271 0.0 3.0 0.00 0.00 0.00 63 1020.1
20260901154523 72 271 0.0 3.0 0.00 0.00 0.00 63 1020.0
20260901154047 72 271 0.0 2.0 0.00 0.00 0.00 68 1020.2
20260901153546 72 271 0.0 1.0 0.00 0.00 0.00 69 1020.1
20260901152546 71 271 0.0 1.0 0.00 0.00 0.00 69 1020.2
20260901152047 71 271 0.0 2.0 0.00 0.00 0.00 69 1020.1
20260901151546 71 271 0.0 2.0 0.00 0.00 0.00 71 1020.1
20260901151511 71 271 0.0 2.0 0.00 0.00 0.00 69 1019.9
20260901151048 71 271 0.0 2.0 0.00 0.00 0.00 68 1020.1
20260901150548 72 271 0.0 0.0 0.00 0.00 0.00 72 1020.0
20260901150118 71 271 0.0 0.0 0.00 0.00 0.00 71 1019.9
20260901150046 71 271 0.0 0.0 0.00 0.00 0.00 75 1020.0
20260901145541 70 271 0.0 0.0 0.00 0.00 0.00 72 1019.9
20260901145037 69 271 0.0 0.0 0.00 0.00 0.00 73 1019.9
20260901144502 68 271 0.0 0.0 0.00 0.00 0.00 72 1019.7
20260901144038 69 271 0.0 0.0 0.00 0.00 0.00 73 1020.0
20260901142532 67 271 0.0 0.0 0.00 0.00 0.00 77 1020.2
20260901142032 65 271 0.0 0.0 0.00 0.00 0.00 79 1020.2
20260901141641 64 271 0.0 0.0 0.00 0.00 0.00 81 1020.2
20260901141530 64 271 0.0 0.0 0.00 0.00 0.00 80 1020.3
20260901141031 64 271 0.0 0.0 0.00 0.00 0.00 81 1020.3
20260901140530 63 271 0.0 0.0 0.00 0.00 0.00 81 1020.2
20260901140038 63 271 0.0 0.0 0.00 0.00 0.00 82 1020.1
20260901140031 63 271 0.0 0.0 0.00 0.00 0.00 82 1020.2
20260901135530 62 271 0.0 0.0 0.00 0.00 0.00 82 1020.3
20260901135030 62 271 0.0 0.0 0.00 0.00 0.00 85 1020.2
20260901134635 61 271 0.0 0.0 0.00 0.00 0.00 84 1020.2
20260901134530 61 271 0.0 0.0 0.00 0.00 0.00 85 1020.3
20260901134033 61 271 0.0 0.0 0.00 0.00 0.00 85 1020.3
20260901133530 60 271 0.0 0.0 0.00 0.00 0.00 87 1020.3
20260901133031 59 271 0.0 0.0 0.00 0.00 0.00 88 1020.3
20260901133016 59 271 0.0 0.0 0.00 0.00 0.00 89 1020.2
20260901132530 59 271 0.0 0.0 0.00 0.00 0.00 89 1020.4
20260901132029 59 271 0.0 0.0 0.00 0.00 0.00 89 1020.6
20260901131611 58 271 0.0 0.0 0.00 0.00 0.00 89 1020.5
20260901131530 58 271 0.0 0.0 0.00 0.00 0.00 90 1020.6
20260901131029 58 271 0.0 0.0 0.00 0.00 0.00 90 1020.6
20260901130529 57 271 0.0 0.0 0.00 0.00 0.00 91 1020.7
20260901130030 56 271 0.0 0.0 0.00 0.00 0.00 92 1020.7
20260901130005 55 271 0.0 0.0 0.00 0.00 0.00 92 1020.7
20260901125529 55 271 0.0 0.0 0.00 0.00 0.00 93 1020.7
20260901125029 55 271 0.0 0.0 0.00 0.00 0.00 93 1020.8
20260901124558 54 271 0.0 0.0 0.00 0.00 0.00 93 1020.9
20260901124530 54 271 0.0 0.0 0.00 0.00 0.00 93 1020.9
20260901124030 54 271 0.0 0.0 0.00 0.00 0.00 94 1020.8
20260901123529 53 271 0.0 0.0 0.00 0.00 0.00 95 1020.8
20260901122527 53 270 0.0 0.0 0.00 0.00 0.00 95 1020.7
20260901122025 52 271 0.0 0.0 0.00 0.00 0.00 95 1020.7
20260901121541 52 271 0.0 0.0 0.00 0.00 0.00 96 1020.6
20260901121522 52 271 0.0 0.0 0.00 0.00 0.00 96 1020.5
20260901120519 51 271 0.0 0.0 0.00 0.00 0.00 96 1020.6
20260901120140 51 271 0.0 0.0 0.00 0.00 0.00 96 1020.6
20260901120017 51 271 0.0 0.0 0.00 0.00 0.00 96 1020.6
20260901115515 51 271 0.0 0.0 0.00 0.00 0.00 97 1020.7
20260901115012 51 271 0.0 0.0 0.00 0.00 0.00 96 1020.6
20260901114539 50 271 0.0 0.0 0.00 0.00 0.00 96 1020.6
20260901114513 51 271 0.0 0.0 0.00 0.00 0.00 96 1020.6
20260901113510 50 271 0.0 0.0 0.00 0.00 0.00 96 1020.4
20260901113145 50 271 0.0 0.0 0.00 0.00 0.00 96 1020.5
20260901113009 50 271 0.0 0.0 0.00 0.00 0.00 96 1020.5
20260901112507 50 271 0.0 0.0 0.00 0.00 0.00 97 1020.5
20260901112004 50 271 0.0 0.0 0.00 0.00 0.00 96 1020.5
20260901111516 49 271 0.0 0.0 0.00 0.00 0.00 97 1020.4
20260901111502 50 271 0.0 0.0 0.00 0.00 0.00 97 1020.4
20260901110503 49 271 0.0 0.0 0.00 0.00 0.00 96 1020.3
20260901110108 49 271 0.0 0.0 0.00 0.00 0.00 96 1020.4
20260901110002 49 271 0.0 0.0 0.00 0.00 0.00 96 1020.4
20260901105502 49 271 0.0 0.0 0.00 0.00 0.00 96 1020.2
20260901105002 49 271 0.0 0.0 0.00 0.00 0.00 97 1020.2
20260901104002 49 271 0.0 0.0 0.00 0.00 0.00 96 1020.0
20260901103106 48 271 0.0 0.0 0.00 0.00 0.00 96 1019.8
20260901102959 49 271 0.0 0.0 0.00 0.00 0.00 97 1019.8
20260901102457 49 271 0.0 0.0 0.00 0.00 0.00 97 1019.7
20260901101503 48 271 0.0 0.0 0.00 0.00 0.00 96 1019.7
20260901101452 49 271 0.0 0.0 0.00 0.00 0.00 96 1019.7
20260901100946 49 271 0.0 0.0 0.00 0.00 0.00 96 1019.8
20260901100440 49 271 0.0 0.0 0.00 0.00 0.00 96 1019.9
20260901100115 48 271 0.0 0.0 0.00 0.00 0.00 96 1019.8
20260901095941 49 271 0.0 0.0 0.00 0.00 0.00 96 1019.9
20260901094941 49 271 0.0 0.0 0.00 0.00 0.00 96 1019.7
20260901094654 48 271 0.0 0.0 0.00 0.00 0.00 96 1019.7
20260901094441 49 271 0.0 0.0 0.00 0.00 0.00 96 1019.8
20260901093940 49 271 0.0 0.0 0.00 0.00 0.00 96 1019.8
20260901093045 49 271 0.0 0.0 0.00 0.00 0.00 96 1019.8
20260901092938 49 271 0.0 0.0 0.00 0.00 0.00 96 1019.8
20260901092438 49 271 0.0 0.0 0.00 0.00 0.00 96 1019.8
20260901091938 49 271 0.0 0.0 0.00 0.00 0.00 96 1019.8
20260901091639 48 271 0.0 0.0 0.00 0.00 0.00 96 1019.9
20260901091438 49 271 0.0 0.0 0.00 0.00 0.00 96 1019.8
20260901090937 49 271 0.0 0.0 0.00 0.00 0.00 96 1019.9
20260901090439 49 271 0.0 0.0 0.00 0.00 0.00 96 1019.8
20260901090034 48 271 0.0 0.0 0.00 0.00 0.00 97 1019.7
20260901085937 49 271 0.0 0.0 0.00 0.00 0.00 96 1019.8
20260901085436 49 271 0.0 0.0 0.00 0.00 0.00 96 1019.7
20260901084935 49 271 0.0 0.0 0.00 0.00 0.00 96 1019.6
20260901083931 49 271 0.0 0.0 0.00 0.00 0.00 96 1019.7
20260901083430 48 271 0.0 0.0 0.00 0.00 0.00 96 1019.7
20260901083018 48 271 0.0 0.0 0.00 0.00 0.00 96 1019.7
20260901082931 48 271 0.0 0.0 0.00 0.00 0.00 96 1019.8
20260901082430 49 271 0.0 0.0 0.00 0.00 0.00 96 1019.7
20260901081930 49 271 0.0 0.0 0.00 0.00 0.00 96 1019.8
20260901081617 49 271 0.0 0.0 0.00 0.00 0.00 96 1019.8
20260901081429 49 271 0.0 0.0 0.00 0.00 0.00 96 1019.8
20260901080929 49 271 0.0 0.0 0.00 0.01 0.00 96 1019.9
20260901080429 49 271 0.0 0.0 0.00 0.01 0.00 96 1019.8
20260901080003 48 271 0.0 0.0 0.00 0.01 0.00 96 1019.8
20260901075930 49 271 0.0 0.0 0.00 0.01 0.00 96 1019.9
20260901075430 49 271 0.0 0.0 0.00 0.01 0.00 96 1019.9
20260901074929 48 271 0.0 0.0 0.00 0.01 0.00 96 1019.7
20260901074607 48 271 0.0 0.0 0.00 0.01 0.00 96 1019.4
20260901074430 48 271 0.0 0.0 0.00 0.01 0.00 96 1019.5
20260901073931 48 271 0.0 0.0 0.00 0.01 0.00 96 1019.5
20260901073156 48 271 0.0 0.0 0.00 0.01 0.00 95 1019.5
20260901072930 48 271 0.0 0.0 0.00 0.01 0.00 95 1019.7
20260901072430 48 271 0.0 0.0 0.00 0.01 0.00 95 1019.8
20260901071929 49 271 0.0 0.0 0.00 0.01 0.00 95 1020.0
20260901071545 48 271 0.0 0.0 0.00 0.01 0.00 95 1019.9
20260901071429 49 271 0.0 0.0 0.00 0.01 0.00 95 1019.9
20260901070930 49 271 0.0 0.0 0.00 0.01 0.00 95 1020.0
20260901070429 49 271 0.0 0.0 0.00 0.01 0.00 96 1019.8
20260901070144 49 271 0.0 0.0 0.00 0.01 0.00 96 1019.9
20260901065930 49 271 0.0 0.0 0.00 0.01 0.00 96 1020.0
20260901065431 49 271 0.0 0.0 0.00 0.01 0.00 96 1020.0
20260901064931 49 271 0.0 0.0 0.00 0.01 0.00 95 1019.9
20260901064533 49 271 0.0 0.0 0.00 0.01 0.00 95 1019.8
20260901064429 49 271 0.0 0.0 0.00 0.01 0.00 95 1019.8
20260901063930 49 271 0.0 0.0 0.00 0.01 0.00 95 1020.0
20260901063428 49 271 0.0 0.0 0.00 0.01 0.00 95 1020.0
20260901063131 49 271 0.0 0.0 0.00 0.01 0.00 95 1019.8
20260901062930 49 271 0.0 0.0 0.00 0.01 0.00 95 1019.9
20260901061931 50 271 0.0 0.0 0.00 0.01 0.00 95 1020.0
20260901061531 50 271 0.0 0.0 0.00 0.01 0.00 95 1019.9
20260901061429 50 271 0.0 0.0 0.00 0.01 0.00 95 1019.9
20260901060931 50 271 0.0 0.0 0.00 0.01 0.00 96 1020.0
20260901060430 50 271 0.0 0.0 0.00 0.01 0.00 95 1020.1
20260901060131 49 271 0.0 0.0 0.00 0.01 0.00 95 1020.0
20260901055931 50 271 0.0 0.0 0.00 0.01 0.00 95 1020.1
20260901055429 50 271 0.0 0.0 0.00 0.01 0.00 95 1020.2
20260901054929 50 271 0.0 0.0 0.00 0.01 0.00 95 1020.2
20260901054531 50 271 0.0 0.0 0.00 0.01 0.00 95 1020.2
20260901054430 50 271 0.0 0.0 0.00 0.01 0.00 95 1020.2
20260901053930 50 271 0.0 0.0 0.00 0.01 0.00 95 1020.2
20260901053430 50 271 0.0 0.0 0.00 0.01 0.00 95 1020.2
20260901053130 50 271 0.0 0.0 0.00 0.01 0.00 95 1020.1
20260901052930 50 271 0.0 0.0 0.00 0.01 0.00 95 1020.3
20260901052429 50 271 0.0 0.0 0.00 0.01 0.00 95 1020.3
20260901051929 51 271 0.0 0.0 0.00 0.01 0.00 94 1020.3
20260901051516 50 271 0.0 0.0 0.00 0.01 0.00 94 1020.3
20260901051429 51 271 0.0 0.0 0.00 0.01 0.00 94 1020.3
20260901050428 51 271 0.0 0.0 0.00 0.01 0.00 95 1020.2
20260901050108 51 271 0.0 0.0 0.00 0.01 0.00 95 1020.3
20260901045929 51 271 0.0 0.0 0.00 0.01 0.00 95 1020.4
20260901045428 51 271 0.0 0.0 0.00 0.01 0.00 94 1020.2
20260901044926 51 271 0.0 0.0 0.00 0.01 0.00 94 1020.2
20260901044647 51 271 0.0 0.0 0.00 0.01 0.00 94 1020.3
20260901043923 51 271 0.0 0.0 0.00 0.01 0.00 94 1020.3
20260901043421 51 271 0.0 0.0 0.00 0.01 0.00 94 1020.3
20260901043056 51 271 0.0 0.0 0.00 0.01 0.00 94 1020.3
20260901042922 52 271 0.0 0.0 0.00 0.01 0.00 94 1020.3
20260901042421 52 271 0.0 0.0 0.00 0.01 0.00 94 1020.3
20260901041921 52 271 0.0 0.0 0.00 0.01 0.00 94 1020.1
20260901041642 52 271 0.0 0.0 0.00 0.01 0.00 94 1020.0
20260901040920 52 271 0.0 0.0 0.00 0.01 0.00 94 1020.1
20260901040421 52 271 0.0 0.0 0.00 0.01 0.00 94 1020.0